sat.trackr.live / text

‹ back to catalog

STARLINK-36752

NORAD 67724 · 2026-026D

PAYLOAD ACTIVE UNKNOWN

§ Identity

Operator
Country
US
Launch date
2026-02-11
Launch site
AFWTR
Launch vehicle
Mass (kg)
RCS (m²)

Purposes: comms

External: N2YO · Heavens-Above · Gunter

§ Orbital elements

Epoch: 2026-09-19T21:22:45.361056Z

Period
93.91 min
Inclination
97.2858°
Eccentricity
0.0000753
Mean motion
15.33452966 rev/d
Perigee alt
465.0 km
Apogee alt
466.0 km
Semi-major
6,843.7 km
B*
3.1898e-4
RAAN
314.6764°
Arg perigee
95.4773°
Mean anomaly
264.6556°
Rev number
3,388

§ Raw data

STARLINK-367521 67724U 26026D   26262.89080279  .00010239  00000+0  31898-3 0  99992 67724  97.2858 314.6764 0000753  95.4773 264.6556 15.33452966 33888

JSON: /api/v1/satellites/67724 · /tle

For live sub-satellite position, see the globe view (requires WebGL).

§ Visibility from observer

Set your observer location to see the next 7 days of passes ≥ 10°. The values pass through the URL so the page stays shareable.

No JS? Fill the form by hand. The geolocation button needs JavaScript.